Showing default

ANGOSAT 2, 54033

Orbit data source: Space-Track

ANGOSAT 2, 54033 is a payload satellite owned by GGPEN (AO) in GEO that was launched on Wed, 12 Oct 2022 UTC via a PROTON-M/DM-3 launch vehicle from the Tyuratam Missile And Space Complex (TTMTR). Payload-class satellites include a variety of spacecraft equipped with specific instruments for various scientific and technological missions. These include communications satellites like Starlink; space stations such as the ISS; scientific satellites like the Hubble; Earth observation satellites from companies like Planet Labs, Umbra, and HawkEye 360; GPS; miniature CubeSats for education and research; and military/defense satellites.

Not visible in the next 10 days
Identifier
54033, 2022-131A
Orbit
GEO
Country
Flag of AOAO / AGO
Related business
Manufacturer
Resehetnev ISS
Mission
Operational Civil Communications
Bus & Motor
EKSPRESS-1000N, AOCS
Mass
2,150 kg wet, ~1,800 kg dry
Launch date (UTC)
2022-10-12 (4 years ago)
Launch vehicle
PROTON-M/DM-3
Launch site
Tyuratam Missile And Space Complex (TTMTR)
Object type
Payload
Rocket body
Debris
Shape & HBR
Box + 2 Pan, 7.5 m
Radar Cross Section
16.987 m², Large (>1 m²)

Expand to show TLE details & history
Last TLE update: 8 hours ago

TLE from 8 hours ago
0 ANGOSAT 2
1 54033U 22131A   26128.33433631  .00000143  00000-0  00000+0 0  9996
2 54033   0.0042 288.2124 0001418 191.4289 249.8871  1.00271958 13071
Epoch: 2026-05-08T08:01Z
TLE epoch observation values (Epoch: 2026-05-08T08:01:26.657Z)
Latitude
0.02186°
Longitude
22.97692°
Altitude
35,788.071 km
Speed
3.075 km/s
True Right ascension
00h 38m 01s
True Declination
0° 01' 19"
Sunlit
Object was in daylight at epoch
Visualization orbit readout
Latitude
Unknown
Longitude
Unknown
Altitude
Unknown
Speed
Unknown
Apparent Right ascension
Unknown
Apparent Declination
Unknown
Sunlit
N/A
Visualization observer readout
Local Sidereal Time
23:39:55
Azimuth
Unknown
Elevation
Unknown
Doppler factor
Unknown
Orbital elements
Apogee altitude
35,793.596 km
Perigee altitude
35,781.638 km
Semi-major axis
42,165.754 km
Eccentricity
0.00014
Inclination
0.0042°
RAAN
288.2124°
Arg. of periapsis
191.4289°
True anomaly
249.87184°
Mean anomaly
249.8871°
Eccentric anomaly
249.87947°
Mean motion
0.25067 °/min
Orbital period
1,436.15 mins
BSTAR
0
Loading maneuver chart data...
Computing Atmospheric mass density...
Loading historical data...
Loading historical data...
Loading historical data...
Loading historical data...
Loading historical data...
Loading historical data...
Loading historical data...
Other satellites on launch #131 in the year 2022 (2022-10-12 UTC)

Documentation

Showing up to 5 results
|